Location: Wells
(51.2093°N, 2.6446°W)
Time: 01:09:51
(UTC+01:00)

STARS - Pass Details

Date: 15 March 2026
Orbit: 575 x 588 km, 98.1° (Epoch: 13 April)

Event Time Altitude Azimuth Distance (km) Brightness Sun altitude
Rises 02:14:38 0° 16° (NNE) 2,803 ? -35.3°
Reaches altitude 10° 02:16:48 10° 18° (NNE) 1,898 ? -35.1°
Enters shadow 02:17:41 16° 20° (NNE) 1,543 ? -35.1°
